Lexington Weather

Lexington, Massachusetts, USA

40°F
3/30/2020 9:04am 
  • Lexington Conditions: Mist, Overcast
  • Temperature: 39.7°F / 4.3°CWarmer 0.3°F than last hour.
  • Dew Point: 39.0°FIncreased 0.3°Fsince last hour.
  • Relative Humidity: 97
  • Wind: Wind from N N 2 mph, 10-min avg: 3 mph, gust: 6 mph
  • Barometer: 29.97 in Steady
  • Visibility: 2 miles
  • Rain Today: 0.02 in
  •   

Regional Weather Roundup
for Boston / Norton, MA

        
000
ASUS41 KBOX 290904
RWRBOX

REGIONAL WEATHER ROUNDUP
NATIONAL WEATHER SERVICE BOSTON/NORTON MA
500 AM EDT SUN MAR 29 2020

NOTE:  "FAIR" INDICATES FEW OR NO CLOUDS BELOW 12,000 FEET WITH NO 
SIGNIFICANT WEATHER AND/OR OBSTRUCTIONS TO VISIBILITY.

MAZALL-291000-
EASTERN MASSACHUSETTS
  
CITY           SKY/WX    TMP DP  RH WIND       PRES   REMARKS
BOSTON         LGT RAIN  42  41  96 E13       30.16S FOG              
BEVERLY        LGT RAIN  43  41  93 E8        30.17R FOG              
LAWRENCE       LGT RAIN  42  41  96 E6        30.17F FOG              
BEDFORD        LGT RAIN  44  40  85 E10       30.14S FOG              
BLUE HILL        N/A     41  40  96 E15       30.10S                  
NORWOOD        CLOUDY    45  41  86 E9        30.14S FOG              
MARSHFIELD     CLOUDY    45  45 100 E6G12     30.16S FOG              
PLYMOUTH       LGT RAIN  44  42  93 E13       30.14F FOG              
TAUNTON        LGT RAIN  44  41  89 E8        30.12F FOG              
NEW BEDFORD    CLOUDY    43  43 100 E13       30.10F FOG              
$$

MAZALL-291000-
CAPE COD AND THE ISLANDS
  
CITY           SKY/WX    TMP DP  RH WIND       PRES   REMARKS
FALMOUTH       CLOUDY    43  45 100 E6        30.12  FOG              
HYANNIS        CLOUDY    46  42  86 E9        30.12F                  
CHATHAM        CLOUDY    44  40  85 E12       30.16S                  
PROVINCETOWN   LGT RAIN  43  42  97 E10       30.16F                  
NANTUCKET      LGT RAIN  45  42  89 E17G24    30.12S FOG              
MARTHAS VNYRD  LGT RAIN  45  43  93 E17G24    30.11R FOG              
$$
 
MAZALL-291000-
CENTRAL AND WESTERN MASSACHUSETTS
  
CITY           SKY/WX    TMP DP  RH WIND       PRES   REMARKS
WORCESTER      LGT RAIN  42  40  92 E8G17     30.09F VSB 1/2          
FITCHBURG      LGT RAIN  43  41  93 E3        30.13F FOG              
ORANGE         CLOUDY    44  42  93 CALM      30.10F FOG              
SPRINGFIELD    CLOUDY    43  43 100 NE6       30.07S                  
WESTFIELD      LGT RAIN  42  40  92 N7        30.08F FOG              
NORTH ADAMS    CLOUDY    44  39  82 E17G25    30.05F                  
PITTSFIELD     LGT RAIN  42  39  89 NE7       30.03S FOG              
$$
 
RIZALL-291000-
RHODE ISLAND
  
CITY           SKY/WX    TMP DP  RH WIND       PRES   REMARKS
PROVIDENCE     LGT RAIN  44  43  96 E14       30.10F FOG              
NEWPORT        LGT RAIN  46  43  89 E16       30.07F FOG              
BLOCK ISLAND   CLOUDY    43  43 100 E13G25    30.05F                  
SMITHFIELD     LGT RAIN  42  42 100 E9        30.10F FOG              
WESTERLY       LGT RAIN  48  43  82 E18       30.07S                  
$$
 
CTZALL-291000-
CONNECTICUT
  
CITY           SKY/WX    TMP DP  RH WIND       PRES   REMARKS
BRADLEY INTL   LGT RAIN  43  42  97 N7        30.07F FOG              
HARTFORD       HVY RAIN  44  43  96 N6        30.07S FOG              
BRIDGEPORT     CLOUDY    46  44  93 NE13G22   30.04S FOG              
DANBURY        CLOUDY    44  42  93 E6        30.04F FOG              
GROTON         RAIN      45  45 100 E21G31    30.04F FOG              
NEW HAVEN      CLOUDY    47  45  93 NE10      30.04S FOG              
CHESTER        LGT RAIN  45  45 100 E9        30.04S                  
MERIDEN        CLOUDY    44  42  93 N5        30.06R                  
WILLIMANTIC    CLOUDY    45  43  93 E5        30.07F FOG              
OXFORD         LGT RAIN  42  42 100 E9        30.03S FOG              
$$

MEZ002-015-021-024-NHZ003-005-008-011-012-014-VTZ005-008-291000-
NORTHERN NEW ENGLAND
  
CITY           SKY/WX    TMP DP  RH WIND       PRES   REMARKS
PORTLAND ME    CLOUDY    43  38  82 E5        30.20F                  
BANGOR ME      CLOUDY    37  29  72 CALM      30.22S                  
CONCORD NH     LGT RAIN  41  38  89 NE5       30.16S                  
MANCHESTER NH  LGT RAIN  43  41  93 NE6       30.14F FOG              
NASHUA NH      LGT RAIN  43  43 100 NE3       30.15F FOG              
PORTSMOUTH NH  LGT RAIN  42  41  97 E6        30.18R                  
JAFFREY NH     LGT RAIN  43  42  97 NE3       30.11S FOG              
KEENE NH       LGT RAIN  42  41  96 CALM      30.11F FOG              
BURLINGTON VT  CLOUDY    45  35  68 S3        30.07F                  
MT. WASHINGTON CLOUDY    27  10  50 SE17        N/A  WCI  14          
$$

NYZ052-076-291000-
EASTERN NEW YORK
  
CITY           SKY/WX    TMP DP  RH WIND       PRES   REMARKS
ALBANY         LGT RAIN  43  40  89 NE3       30.06S FOG              
NEW YORK CITY  LGT RAIN  45  42  89 NE23G31   29.99F FOG              
$$
 
ANZALL-291000-
MARINE OBSERVATIONS
  
STATION/POSITION TIME  TEMP    WIND        PRES    VSBY  WAVE
                       AIR SEA DIR/SP/G                  HT/PER
                 (UTC) (F)     (DEG/KT/KT) (MB)    (MI)  (FT/S)
BOSTON BUOY      0850   42 43  100/ 12/ 16 1020.8R         2/10
BUZZARDS BAY     0800           90/ 21/ 24 1019.9R
NANTUCKET SOUND  NOT AVBL
MASS BAY-STELLWA 0804   42 42  140/ 10/ 12 1019.7R  1 7/8  1/ 3
ISLE OF SHOALS   0800   42     120/  5/  5 1021.6R
S OF BLOCK IS    0830      44                N/A           7/ 5
$$

......................KEY.........................
  SKY/WX - SKY CONDITION/PRESENT WEATHER
  TMP    - TEMPERATURE IN FAHRENHEIT
  DWPT   - DEWPOINT IN FAHRENHEIT
  RH     - RELATIVE HUMIDITY IN PERCENT
  WIND   - DIRECTION AND SPEED IN MPH
  PRES   - MEAN SEA LEVEL PRESSURE IN INCHES OF HG
  WCI    - WIND CHILL INDEX
  VSB    - VISIBILITY IN MILES
  HX     - HEAT INDEX
  TC     - TEMPERATURE IN CELSIUS
  VRB    - VARIABLE WIND DIRECTION
  N/A    - NOT AVAILABLE
  
      

Other recent Regional Weather Roundups

Mon Mar 30, 8:04am

Mon Mar 30, 7:04am

Mon Mar 30, 6:04am

Mon Mar 30, 5:04am

Mon Mar 30, 4:04am

Mon Mar 30, 3:05am

Mon Mar 30, 2:04am

Mon Mar 30, 1:04am

Mon Mar 30, 12:04am

Sun Mar 29, 11:04pm

Sun Mar 29, 10:05pm

Sun Mar 29, 9:04pm

Sun Mar 29, 8:04pm

Sun Mar 29, 7:04pm

Sun Mar 29, 6:04pm

Sun Mar 29, 5:05pm

Sun Mar 29, 4:04pm

Sun Mar 29, 3:04pm

Sun Mar 29, 2:04pm

Sun Mar 29, 1:05pm

Sun Mar 29, 12:04pm

Sun Mar 29, 11:04am

Sun Mar 29, 10:04am

Sun Mar 29, 9:04am

Sun Mar 29, 8:04am

Sun Mar 29, 7:04am

Sun Mar 29, 6:04am

Sun Mar 29, 4:04am

Sun Mar 29, 3:04am

Sun Mar 29, 2:04am

Sun Mar 29, 1:04am

Sun Mar 29, 12:04am

Sat Mar 28, 11:05pm

Sat Mar 28, 10:04pm

Sat Mar 28, 9:04pm

Sat Mar 28, 8:04pm

Sat Mar 28, 7:04pm

Sat Mar 28, 6:04pm

Sat Mar 28, 5:05pm

Sat Mar 28, 4:04pm

Sat Mar 28, 3:04pm

Sat Mar 28, 2:04pm

Sat Mar 28, 1:05pm

Sat Mar 28, 12:04pm

Sat Mar 28, 11:04am

Sat Mar 28, 10:04am

Sat Mar 28, 9:04am

Sat Mar 28, 8:04am

Sat Mar 28, 7:04am

Sat Mar 28, 6:04am

Sat Mar 28, 5:04am

Sat Mar 28, 4:04am

Sat Mar 28, 3:04am

Sat Mar 28, 2:04am

Sat Mar 28, 1:04am

Sat Mar 28, 12:04am

Fri Mar 27, 11:04pm

Fri Mar 27, 10:04pm

Fri Mar 27, 9:04pm

Fri Mar 27, 8:04pm

Fri Mar 27, 7:05pm

Fri Mar 27, 6:04pm

Fri Mar 27, 5:05pm

Fri Mar 27, 4:05pm

Fri Mar 27, 3:04pm

Fri Mar 27, 2:05pm

Fri Mar 27, 1:04pm

Fri Mar 27, 12:04pm

Fri Mar 27, 11:04am

Fri Mar 27, 10:04am

Fri Mar 27, 9:04am

Meta data:

ID: b5171328-3dd1-4f67-ac49-e218663037f3
Link: https://api.weather.gov/products/b5171328-3dd1-4f67-ac49-e218663037f3